N2PUI Weather Reports


time (UTC)temp
C
wind
direction
speed
KPH
gust
KPH
rain 1hr
cm
rain 24hr
cm
rain mn
cm
humidity
%
barometer
mb
20260508211537 12 190 3.2 3.2 0.00 0.18 0.18 46 1011.0
20260508211034 13 11 6.4 8.0 0.00 0.18 0.18 47 1011.2
20260508210530 12 313 4.8 4.8 0.00 0.18 0.18 47 1011.1
20260508210028 13 233 3.2 4.8 0.00 0.18 0.18 46 1011.4
20260508205525 13 25 8.0 9.7 0.00 0.18 0.18 47 1011.4
20260508205021 12 310 3.2 3.2 0.00 0.18 0.18 48 1011.2
20260508204518 12 209 4.8 4.8 0.00 0.18 0.18 47 1011.5
20260508204014 12 298 6.4 9.7 0.00 0.18 0.18 47 1011.4
20260508203510 13 301 8.0 11.3 0.00 0.18 0.18 45 1011.6
20260508203006 12 264 4.8 8.0 0.00 0.18 0.18 48 1011.7
20260508202503 13 121 1.6 3.2 0.00 0.18 0.18 49 1011.8
20260508202000 13 291 9.7 12.9 0.00 0.18 0.18 46 1011.6
20260508201456 12 270 6.4 8.0 0.00 0.18 0.18 49 1011.7
20260508200953 12 167 0.0 1.6 0.00 0.18 0.18 49 1011.7
20260508200450 12 194 3.2 3.2 0.00 0.18 0.18 52 1012.0
20260508195945 11 13 6.4 9.7 0.00 0.18 0.18 53 1012.2
20260508195443 12 298 6.4 8.0 0.00 0.18 0.18 53 1012.0
20260508194939 11 276 9.7 12.9 0.00 0.18 0.18 53 1012.0
20260508194436 11 347 6.4 8.0 0.00 0.18 0.18 55 1011.9
20260508193933 11 189 3.2 4.8 0.00 0.18 0.18 56 1012.2
20260508193430 11 226 8.0 9.7 0.00 0.18 0.18 54 1012.3
20260508192926 11 309 9.7 14.5 0.00 0.18 0.18 55 1012.5
20260508192423 11 328 8.0 11.3 0.00 0.18 0.18 57 1012.4
20260508191920 11 235 3.2 3.2 0.00 0.18 0.18 56 1012.5
20260508191417 11 4 3.2 4.8 0.00 0.18 0.18 57 1012.4
20260508190914 10 240 1.6 4.8 0.00 0.18 0.18 60 1012.5
20260508190411 10 305 8.0 11.3 0.00 0.18 0.18 58 1012.6
20260508185907 10 13 14.5 22.5 0.00 0.18 0.18 58 1012.6
20260508185405 11 273 4.8 9.7 0.00 0.18 0.18 58 1012.8
20260508184901 10 239 8.0 9.7 0.00 0.18 0.18 60 1012.8
20260508184359 10 298 11.3 14.5 0.00 0.18 0.18 60 1012.8
20260508183850 10 335 6.4 9.7 0.00 0.18 0.18 60 1012.7
20260508183346 10 291 9.7 12.9 0.00 0.18 0.18 60 1012.8
20260508182842 11 327 6.4 11.3 0.00 0.18 0.18 59 1012.9
20260508182339 10 182 0.0 0.0 0.00 0.18 0.18 65 1012.9
20260508181835 9 228 4.8 8.0 0.00 0.18 0.18 64 1012.9
20260508181332 10 156 0.0 0.0 0.00 0.18 0.18 65 1013.0
20260508180829 10 231 6.4 9.7 0.00 0.18 0.18 67 1013.1
20260508180326 9 273 6.4 9.7 0.00 0.18 0.18 68 1013.1
20260508175822 9 190 0.0 0.0 0.00 0.18 0.18 71 1013.3
20260508175318 8 161 0.0 0.0 0.00 0.18 0.18 73 1013.0
20260508174817 8 157 3.2 3.2 0.00 0.18 0.18 71 1013.0
20260508174314 8 192 1.6 1.6 0.00 0.18 0.18 72 1013.0
20260508173810 8 197 0.0 0.0 0.00 0.18 0.18 73 1013.4
20260508173307 7 345 4.8 4.8 0.00 0.18 0.18 73 1013.1
20260508172803 8 222 3.2 3.2 0.00 0.18 0.18 73 1013.5
20260508172300 8 232 3.2 3.2 0.00 0.18 0.18 72 1013.4
20260508171756 8 210 1.6 4.8 0.00 0.18 0.18 72 1013.3
20260508171253 8 176 0.0 1.6 0.00 0.18 0.18 72 1013.4
20260508170750 8 267 4.8 4.8 0.00 0.18 0.18 73 1013.4
20260508170248 8 131 1.6 1.6 0.00 0.18 0.18 75 1013.4
20260508165744 8 181 4.8 4.8 0.00 0.18 0.18 76 1013.4
20260508165242 7 98 0.0 1.6 0.00 0.18 0.18 79 1013.3
20260508164738 7 51 1.6 3.2 0.00 0.18 0.18 83 1013.4
20260508164234 6 195 4.8 8.0 0.00 0.18 0.18 85 1013.5
20260508163733 6 165 1.6 1.6 0.00 0.18 0.18 88 1013.6
20260508163230 6 185 3.2 3.2 0.00 0.18 0.18 89 1013.5
20260508162725 5 219 4.8 4.8 0.00 0.18 0.18 89 1013.7
20260508162223 5 183 3.2 3.2 0.00 0.18 0.18 90 1013.8
20260508161719 5 182 1.6 1.6 0.00 0.18 0.18 90 1014.0
20260508161217 4 141 0.0 1.6 0.00 0.18 0.18 90 1013.9
20260508160715 4 148 1.6 1.6 0.00 0.18 0.18 90 1014.0
20260508160213 4 232 3.2 3.2 0.00 0.18 0.18 90 1013.9
20260508155709 3 51 1.6 3.2 0.00 0.18 0.18 90 1013.8
20260508155206 3 180 0.0 1.6 0.00 0.18 0.18 90 1014.2
20260508154703 3 172 1.6 1.6 0.00 0.18 0.18 90 1014.1
20260508154200 3 267 1.6 3.2 0.00 0.18 0.18 90 1013.9
20260508153656 4 185 1.6 1.6 0.00 0.18 0.18 90 1013.9
20260508153154 3 180 0.0 1.6 0.00 0.18 0.18 90 1013.8
20260508152650 3 85 3.2 3.2 0.18 0.18 0.18 89 1013.7
20260508152146 3 148 1.6 1.6 0.18 0.18 0.18 89 1013.6
20260508151643 3 143 1.6 1.6 0.00 0.15 0.15 89 1013.9
20260508151139 3 183 1.6 1.6 0.00 0.15 0.15 89 1013.9
20260508150636 3 191 1.6 1.6 0.00 0.15 0.15 89 1013.8
20260508150133 3 216 1.6 1.6 0.00 0.15 0.15 89 1013.7
20260508145629 3 170 0.0 0.0 0.00 0.15 0.15 89 1013.4
20260508145125 3 167 0.0 0.0 0.00 0.15 0.15 89 1013.8
20260508144623 3 157 0.0 1.6 0.00 0.15 0.15 89 1013.8
20260508144121 3 340 3.2 3.2 0.00 0.15 0.15 88 1013.7
20260508143618 3 336 6.4 8.0 0.00 0.15 0.15 88 1013.7
20260508143114 3 20 8.0 9.7 0.00 0.15 0.15 88 1013.7
20260508142611 3 28 4.8 4.8 0.00 0.15 0.15 87 1013.9
20260508142108 3 22 3.2 3.2 0.13 0.15 0.15 87 1013.7
20260508141604 3 9 4.8 4.8 0.30 0.15 0.15 87 1013.7
20260508141102 3 327 4.8 4.8 0.18 0.13 0.13 86 1013.8
20260508140559 4 58 3.2 4.8 0.13 0.10 0.10 86 1013.8
20260508140055 4 19 9.7 12.9 0.13 0.10 0.10 85 1013.7
20260508135551 4 356 3.2 3.2 0.18 0.08 0.08 84 1013.7
20260508135047 5 294 8.0 9.7 0.18 0.08 0.08 83 1013.4
20260508134544 5 206 1.6 3.2 0.00 0.05 0.05 82 1013.4
20260508134041 5 193 3.2 3.2 0.00 0.05 0.05 81 1013.0
20260508133538 5 195 3.2 3.2 0.13 0.05 0.05 81 1013.3
20260508133035 5 189 1.6 1.6 0.30 0.05 0.05 79 1013.0
20260508132533 5 195 1.6 1.6 0.18 0.03 0.03 78 1012.8
20260508132030 6 243 3.2 4.8 0.00 0.00 0.00 79 1012.9
20260508131525 6 207 3.2 4.8 0.00 0.00 0.00 79 1012.8
20260508131022 6 167 0.0 1.6 0.00 0.00 0.00 80 1012.7
20260508130519 6 180 0.0 0.0 0.00 0.00 0.00 80 1012.5
20260508130015 6 171 1.6 3.2 0.00 0.00 0.00 81 1012.7
20260508125511 5 171 0.0 1.6 0.00 0.00 0.00 81 1012.4
20260508125009 5 162 1.6 1.6 0.00 0.00 0.00 81 1012.3
20260508124507 5 158 1.6 3.2 0.00 0.00 0.00 81 1012.0
20260508124004 6 159 1.6 1.6 0.00 0.00 0.00 81 1012.2
20260508123503 5 166 4.8 4.8 0.00 0.00 0.00 81 1012.1
20260508122958 5 136 4.8 4.8 0.00 0.00 0.00 82 1012.1
20260508122455 5 120 4.8 4.8 0.00 0.00 0.00 84 1012.1
20260508121952 5 117 3.2 3.2 0.00 0.00 0.00 85 1012.2
20260508121450 5 125 3.2 3.2 0.00 0.00 0.00 87 1012.2
20260508120948 4 181 4.8 4.8 0.00 0.00 0.00 87 1012.3
20260508120446 5 170 1.6 3.2 0.00 0.00 0.00 88 1012.4
20260508115943 5 162 3.2 3.2 0.00 0.00 0.00 89 1012.3
20260508115441 4 136 0.0 0.0 0.00 0.00 0.00 90 1012.3
20260508114937 3 153 3.2 3.2 0.00 0.00 0.00 90 1012.3
20260508114435 3 144 1.6 1.6 0.00 0.00 0.00 90 1012.4
20260508113931 3 151 1.6 1.6 0.00 0.00 0.00 90 1012.4
20260508113429 3 154 1.6 1.6 0.00 0.00 0.00 90 1012.4
20260508112926 2 145 1.6 1.6 0.00 0.00 0.00 91 1012.6
20260508112422 2 140 1.6 1.6 0.00 0.00 0.00 91 1012.6
20260508111919 2 144 0.0 0.0 0.00 0.00 0.00 90 1012.6
20260508111416 2 144 0.0 0.0 0.00 0.00 0.00 90 1012.7
20260508110913 2 146 0.0 0.0 0.00 0.00 0.00 90 1012.7
20260508110410 2 160 0.0 0.0 0.00 0.00 0.00 90 1013.0
20260508105904 2 151 0.0 0.0 0.00 0.00 0.00 90 1012.8
20260508105401 2 150 0.0 0.0 0.00 0.00 0.00 90 1012.8
20260508104859 2 151 1.6 1.6 0.00 0.00 0.00 90 1012.5
20260508104356 2 154 0.0 1.6 0.00 0.00 0.00 90 1012.5
20260508103853 2 153 0.0 0.0 0.00 0.00 0.00 90 1012.4
20260508103349 1 154 0.0 0.0 0.00 0.00 0.00 90 1012.5
20260508102847 1 153 0.0 0.0 0.00 0.00 0.00 90 1012.6
20260508102345 1 152 0.0 0.0 0.00 0.00 0.00 89 1012.8
20260508101842 1 151 0.0 0.0 0.00 0.00 0.00 89 1012.7
20260508101339 1 160 0.0 0.0 0.00 0.00 0.00 89 1012.8
20260508100837 1 152 0.0 0.0 0.00 0.00 0.00 89 1012.6
20260508100335 1 157 0.0 0.0 0.00 0.00 0.00 89 1012.6
20260508095830 1 145 0.0 0.0 0.00 0.00 0.00 89 1012.5
20260508095328 1 141 0.0 1.6 0.00 0.00 0.00 89 1012.6
20260508094825 1 153 0.0 0.0 0.00 0.00 0.00 88 1012.7
20260508094322 1 129 1.6 1.6 0.00 0.00 0.00 88 1012.5
20260508093819 1 138 1.6 1.6 0.00 0.00 0.00 88 1012.5
20260508093317 1 135 1.6 1.6 0.00 0.00 0.00 88 1012.5
20260508092814 1 150 0.0 0.0 0.00 0.00 0.00 88 1012.3
20260508092314 1 153 0.0 0.0 0.00 0.00 0.00 87 1012.3
20260508091810 2 153 0.0 0.0 0.00 0.00 0.00 87 1012.1
20260508091306 1 142 0.0 0.0 0.00 0.00 0.00 87 1012.2
20260508090803 1 135 0.0 1.6 0.00 0.00 0.00 87 1012.5
20260508090301 1 136 1.6 1.6 0.00 0.00 0.00 87 1012.5
20260508085757 1 149 0.0 0.0 0.00 0.00 0.00 87 1012.2
20260508085255 1 120 0.0 0.0 0.00 0.00 0.00 87 1012.3
20260508084750 1 149 0.0 1.6 0.00 0.00 0.00 86 1012.1
20260508084248 2 148 0.0 0.0 0.00 0.00 0.00 86 1012.1
20260508083746 2 125 1.6 1.6 0.00 0.00 0.00 86 1012.0
20260508083243 2 92 3.2 4.8 0.00 0.00 0.00 86 1012.3
20260508082742 2 109 3.2 3.2 0.00 0.00 0.00 85 1012.2
20260508082241 2 106 1.6 3.2 0.00 0.00 0.00 85 1012.1
20260508081738 2 134 3.2 3.2 0.00 0.00 0.00 85 1011.9
20260508081234 2 140 0.0 0.0 0.00 0.00 0.00 85 1012.0
20260508080731 2 134 1.6 1.6 0.00 0.00 0.00 85 1011.9
20260508080229 3 126 1.6 1.6 0.00 0.00 0.00 85 1012.0
20260508075726 3 172 0.0 0.0 0.00 0.00 0.00 85 1011.9
20260508075222 3 172 0.0 0.0 0.00 0.00 0.00 85 1011.7
20260508074720 4 168 0.0 0.0 0.00 0.00 0.00 85 1011.8
20260508074218 4 51 4.8 8.0 0.00 0.00 0.00 85 1011.8
20260508073714 4 130 1.6 1.6 0.00 0.00 0.00 85 1011.8
20260508073213 4 169 0.0 0.0 0.00 0.00 0.00 85 1011.8
20260508072708 4 169 0.0 0.0 0.00 0.00 0.00 85 1011.8
20260508072205 4 169 0.0 0.0 0.00 0.00 0.00 85 1011.7
20260508071702 4 171 0.0 0.0 0.00 0.00 0.00 84 1012.0
20260508071201 4 200 1.6 3.2 0.00 0.00 0.00 84 1011.8
20260508070658 4 105 3.2 3.2 0.00 0.00 0.00 84 1011.7
20260508070157 4 131 1.6 1.6 0.00 0.00 0.00 84 1011.6
20260508065653 4 157 1.6 1.6 0.00 0.00 0.00 83 1011.5
20260508065151 4 160 0.0 0.0 0.00 0.00 0.00 83 1011.6
20260508064648 4 159 0.0 1.6 0.00 0.00 0.00 83 1011.7
20260508064147 4 182 0.0 0.0 0.00 0.00 0.00 82 1011.4
20260508063644 4 147 0.0 1.6 0.00 0.00 0.00 82 1011.5
20260508063141 4 164 0.0 0.0 0.00 0.00 0.00 81 1011.6
20260508062639 4 164 0.0 0.0 0.00 0.00 0.00 81 1011.4
20260508062135 4 163 0.0 0.0 0.00 0.00 0.00 80 1011.6
20260508061633 4 163 0.0 0.0 0.00 0.00 0.00 80 1011.3
20260508061130 4 165 0.0 0.0 0.00 0.00 0.00 79 1011.5
20260508060627 4 81 0.0 0.0 0.00 0.00 0.00 79 1011.5
20260508060124 4 327 4.8 4.8 0.00 0.00 0.00 79 1011.7
20260508055619 5 148 1.6 1.6 0.00 0.00 0.00 78 1011.6
20260508055116 5 168 0.0 0.0 0.00 0.00 0.00 77 1011.6
20260508054613 5 138 1.6 3.2 0.00 0.00 0.00 76 1011.7
20260508054111 5 174 0.0 0.0 0.00 0.00 0.00 75 1011.5
20260508053607 5 175 0.0 1.6 0.00 0.00 0.00 75 1011.9
20260508053105 5 76 4.8 4.8 0.00 0.00 0.00 75 1012.1
20260508052602 5 165 0.0 0.0 0.00 0.00 0.00 75 1011.9
20260508052059 5 159 0.0 0.0 0.00 0.00 0.00 75 1011.9
20260508051555 5 156 0.0 0.0 0.00 0.00 0.00 75 1011.7
20260508051051 5 166 0.0 0.0 0.00 0.00 0.00 76 1011.9
20260508050547 5 144 1.6 1.6 0.00 0.00 0.00 77 1011.7
20260508050045 5 175 0.0 0.0 0.00 0.00 0.00 79 1011.8
20260508045541 4 165 0.0 0.0 0.00 0.00 0.00 80 1011.9
20260508045038 4 121 0.0 0.0 0.00 0.00 0.00 82 1011.8
20260508044536 3 84 0.0 1.6 0.00 0.00 0.00 84 1012.1
20260508044031 3 45 4.8 4.8 0.00 0.00 0.00 84 1012.1
20260508043528 3 154 0.0 1.6 0.00 0.00 0.00 84 1012.1
20260508043026 3 167 1.6 1.6 0.00 0.00 0.00 84 1012.0
20260508042522 3 155 0.0 0.0 0.00 0.00 0.00 84 1011.7
20260508042020 3 130 1.6 1.6 0.00 0.00 0.00 84 1011.6
20260508041516 3 175 0.0 0.0 0.00 0.00 0.00 84 1011.6
20260508041013 3 175 0.0 0.0 0.00 0.00 0.00 84 1011.8
20260508040510 3 175 0.0 0.0 0.00 0.00 0.00 83 1011.8
20260508040007 3 175 0.0 0.0 0.00 0.05 0.05 83 1011.7
20260508035504 3 175 0.0 0.0 0.00 0.05 0.05 83 1011.7
20260508035001 3 175 0.0 0.0 0.00 0.05 0.05 83 1011.6
20260508034458 3 176 0.0 0.0 0.00 0.05 0.05 82 1011.8
20260508033955 3 176 0.0 0.0 0.00 0.05 0.05 82 1011.8
20260508033453 3 176 0.0 0.0 0.00 0.05 0.05 82 1011.8
20260508032950 3 177 0.0 0.0 0.00 0.05 0.05 82 1011.8
20260508032447 3 153 0.0 0.0 0.00 0.05 0.05 81 1011.6
20260508031944 3 155 1.6 1.6 0.00 0.05 0.05 81 1011.6
20260508031436 3 157 1.6 1.6 0.00 0.05 0.05 80 1011.3
20260508030931 3 147 0.0 0.0 0.00 0.05 0.05 80 1011.3
20260508030429 3 147 0.0 0.0 0.00 0.05 0.05 80 1011.4
20260508025926 3 131 1.6 3.2 0.00 0.05 0.05 79 1011.1
20260508025423 3 169 0.0 0.0 0.00 0.05 0.05 78 1011.3
20260508024919 3 178 1.6 1.6 0.00 0.05 0.05 77 1011.3
20260508024416 3 156 0.0 0.0 0.00 0.05 0.05 76 1010.9
20260508023913 3 156 0.0 0.0 0.00 0.05 0.05 76 1011.1
20260508023410 3 146 0.0 0.0 0.00 0.05 0.05 75 1011.1
20260508022907 3 97 3.2 3.2 0.00 0.05 0.05 75 1011.2
20260508022402 3 132 3.2 3.2 0.00 0.05 0.05 74 1011.3
20260508021859 3 141 0.0 1.6 0.00 0.05 0.05 73 1011.2
20260508021355 3 103 3.2 3.2 0.00 0.05 0.05 73 1011.3
20260508020851 3 110 3.2 3.2 0.00 0.05 0.05 73 1011.0
20260508020349 3 148 0.0 0.0 0.00 0.05 0.05 72 1010.9
20260508015846 4 149 0.0 0.0 0.00 0.05 0.05 71 1011.0
20260508015344 4 75 3.2 3.2 0.00 0.05 0.05 71 1010.8
20260508014840 5 89 3.2 3.2 0.00 0.05 0.05 70 1011.2
20260508014338 5 124 1.6 1.6 0.00 0.05 0.05 68 1011.0
20260508013838 5 34 3.2 3.2 0.00 0.05 0.05 66 1010.8
20260508013335 5 34 4.8 4.8 0.00 0.05 0.05 65 1010.8
20260508012832 6 28 4.8 4.8 0.00 0.05 0.05 64 1010.9
20260508012329 6 32 4.8 4.8 0.00 0.05 0.05 63 1010.8
20260508011827 6 20 6.4 8.0 0.00 0.05 0.05 64 1011.0
20260508011324 6 45 3.2 3.2 0.00 0.05 0.05 64 1010.8
20260508010821 6 81 3.2 3.2 0.00 0.05 0.05 64 1010.8
20260508010319 6 23 4.8 4.8 0.00 0.05 0.05 65 1010.9
20260508005816 6 94 3.2 3.2 0.00 0.05 0.05 63 1010.9
20260508005312 7 74 1.6 3.2 0.00 0.05 0.05 60 1010.5
20260508004808 7 107 1.6 3.2 0.00 0.05 0.05 60 1010.8
20260508004259 7 38 4.8 4.8 0.00 0.05 0.05 62 1010.6
20260508003755 8 234 0.0 1.6 0.00 0.05 0.05 58 1010.6
20260508003254 8 8 4.8 4.8 0.00 0.05 0.05 57 1010.4
20260508002749 8 66 3.2 3.2 0.00 0.05 0.05 57 1010.6
20260508002247 8 353 4.8 4.8 0.00 0.05 0.05 56 1010.2
20260508001743 8 286 3.2 3.2 0.00 0.05 0.05 56 1010.3
20260508001238 9 96 1.6 3.2 0.00 0.05 0.05 55 1010.3
20260508000735 9 23 3.2 3.2 0.00 0.05 0.05 57 1010.3
20260508000234 9 163 0.0 1.6 0.00 0.05 0.05 57 1010.2
20260507235728 10 124 1.6 1.6 0.00 0.05 0.05 56 1010.0
20260507235226 10 285 8.0 9.7 0.00 0.05 0.05 52 1009.8
20260507234723 10 254 3.2 3.2 0.00 0.05 0.05 53 1010.2
20260507234219 10 239 1.6 1.6 0.00 0.05 0.05 52 1010.0
20260507233716 10 185 0.0 0.0 0.00 0.05 0.05 54 1009.8
20260507233214 10 194 1.6 1.6 0.00 0.05 0.05 51 1009.7
20260507232710 10 298 4.8 4.8 0.00 0.05 0.05 50 1010.1
20260507232208 10 298 4.8 4.8 0.00 0.05 0.05 51 1010.0
20260507231704 11 328 3.2 3.2 0.00 0.05 0.05 50 1010.0
20260507231201 11 290 4.8 8.0 0.00 0.05 0.05 49 1009.8
20260507230658 11 165 1.6 1.6 0.00 0.05 0.05 49 1009.7
20260507230155 11 329 4.8 4.8 0.00 0.05 0.05 50 1009.8
20260507225655 11 268 3.2 4.8 0.00 0.05 0.05 49 1009.8
20260507225152 11 209 1.6 3.2 0.00 0.05 0.05 49 1009.8
20260507224647 12 254 1.6 3.2 0.00 0.05 0.05 49 1009.8
20260507224144 11 345 1.6 3.2 0.00 0.05 0.05 51 1009.8
20260507223640 10 285 1.6 3.2 0.00 0.05 0.05 51 1009.7
20260507223137 10 237 3.2 3.2 0.00 0.05 0.05 49 1009.8
20260507222634 11 330 4.8 8.0 0.00 0.05 0.05 50 1009.6
20260507222130 11 217 1.6 3.2 0.00 0.05 0.05 50 1009.7
20260507221627 11 269 4.8 4.8 0.00 0.05 0.05 48 1010.0
20260507221123 11 147 0.0 1.6 0.00 0.05 0.05 49 1009.8
20260507220620 11 281 9.7 11.3 0.00 0.05 0.05 47 1009.7
20260507220118 11 130 3.2 3.2 0.00 0.05 0.05 50 1009.8
20260507215614 11 0 12.9 17.7 0.00 0.05 0.05 49 1009.8
20260507215112 11 319 4.8 8.0 0.00 0.05 0.05 49 1010.1
20260507214609 11 194 3.2 4.8 0.00 0.05 0.05 48 1010.2
20260507214105 11 290 3.2 4.8 0.00 0.05 0.05 49 1010.1
20260507213601 11 301 4.8 8.0 0.00 0.05 0.05 49 1010.0
20260507213059 12 202 1.6 1.6 0.00 0.05 0.05 48 1010.2
20260507212554 12 300 4.8 4.8 0.00 0.05 0.05 50 1010.1
20260507212051 12 303 8.0 11.3 0.00 0.05 0.05 47 1010.1